Location: Krasnoyarskiy Pitomnik
(51.1333°N, 71.6167°E)
Time: 15:29:30
(UTC+00:00)

CZ-4B R/B - Pass Details

Date: 22 October 2021
Orbit: 702 x 802 km, 98.9° (Epoch: 26 November)

Event Time Altitude Azimuth Distance (km) Brightness Sun altitude
Rises 23:07:37 0° 15° (NNE) 3,327 7.2 -26.0°
Reaches altitude 10° 23:09:58 10° 17° (NNE) 2,388 6.4 -25.7°
Maximum altitude 23:15:16 84° 105° (ESE) 805 3.5 -24.8°
Enters shadow 23:17:08 42° 190° (S) 1,122 4.1 -24.6°
